Location: Iesi
(43.5167°N, 13.2333°E)
Time: 02:12:57
(UTC+00:00)

COSMOS 2428 - Pass Details

Date: 08 August 2020
Orbit: 844 x 859 km, 70.9° (Epoch: 27 September)

Event Time Altitude Azimuth Distance (km) Brightness Sun altitude
Rises 22:13:51 0° 342° (NNW) 3,432 7.1 -29.2°
Reaches altitude 10° 22:16:39 10° 353° (N) 2,495 6.1 -29.3°
Maximum altitude 22:21:37 30° 53° (NE) 1,508 4.1 -29.5°
Enters shadow 22:22:33 28° 70° (ENE) 1,553 4.1 -29.6°
